Wind from 215 at 2 knots gusting 6

Air temperature 20.0° C
Dewpoint 14.6° C

Last reported at 2014-Apr-23 11:41 UTC.
Time now 2014-Apr-23 12:54 UTC

Location: N 40°34' E 022°58'.
View on Google Maps.

See reports from other nearby stations

Tides Stations Pressure Air Temp Water Temp Dewpoint Dewpoint depression Visibility Wind Speed Wind Dir Waves Ship positions

  
sailing weather and tide predictions

CW8081 Thessaloniki GR weather

date/time (UTC)wind fromknots sea level pressurealtimeterstation pressurevisibilityair tempwater tempwave heightnotes
2014-Apr-23 11:41 215 2 gusting 6 20.0
2014-Apr-23 11:31 223 1 gusting 6 19.4
2014-Apr-23 11:11 225 4 gusting 6 19.4
2014-Apr-23 11:01 242 1 gusting 6 18.9
2014-Apr-23 10:41 233 5 gusting 6 19.4
2014-Apr-23 10:31 227 4 gusting 6 19.4
2014-Apr-23 10:11 219 4 gusting 6 19.4
2014-Apr-23 10:01 236 1 gusting 7 18.9
2014-Apr-23 09:41 242 4 gusting 6 18.9
2014-Apr-23 09:31 226 4 gusting 6 19.4
2014-Apr-23 09:11 236 2 gusting 4 18.9
2014-Apr-23 09:01 257 0 gusting 5 18.9
2014-Apr-23 08:41 212 1 gusting 5 18.9
2014-Apr-23 08:31 210 1 gusting 5 18.3
2014-Apr-23 08:11 209 18.3
2014-Apr-23 08:01 209 17.8
2014-Apr-23 07:41 209 16.7
2014-Apr-23 07:31 209 16.7
2014-Apr-23 07:11 209 4 gusting 6 16.7
2014-Apr-23 07:01 207 3 gusting 6 17.2
2014-Apr-23 06:41 199 0 gusting 4 17.2
2014-Apr-23 06:31 200 2 gusting 6 17.2
2014-Apr-23 06:11 163 16.1
2014-Apr-23 06:01 162 16.1
2014-Apr-23 05:41 167 15.6
2014-Apr-23 05:31 167 15.0
2014-Apr-23 05:11 167 15.0
2014-Apr-23 05:01 167 15.0
2014-Apr-23 04:41 142 14.4
2014-Apr-23 04:31 142 14.4
2014-Apr-23 04:11 142 14.4
2014-Apr-23 04:01 141 14.4
2014-Apr-23 03:41 139 14.4
2014-Apr-23 03:31 144 14.4
2014-Apr-23 03:11 134 0 gusting 6 14.4
2014-Apr-23 03:01 133 1 gusting 6 14.4
2014-Apr-23 02:41 012 14.4
2014-Apr-23 02:31 012 14.4
2014-Apr-23 02:11 011 14.4
2014-Apr-23 02:01 012 14.4
2014-Apr-23 01:41 011 15.0
2014-Apr-23 01:31 012 15.0
2014-Apr-23 01:11 012 15.0
2014-Apr-23 01:01 012 15.6
2014-Apr-23 00:41 011 15.6
2014-Apr-23 00:31 011 15.6
2014-Apr-23 00:11 021 15.6
2014-Apr-23 00:01 021 2 gusting 6 15.6
2014-Apr-22 23:41 051 1 gusting 5 15.0
2014-Apr-22 23:31 079 15.0
2014-Apr-22 23:11 152 15.0
2014-Apr-22 23:01 191 15.0
2014-Apr-22 22:41 191 15.0
2014-Apr-22 22:31 191 15.6
2014-Apr-22 22:11 191 1 gusting 6 15.6
2014-Apr-22 22:01 217 5 gusting 6 15.6
2014-Apr-22 21:41 198 15.6
2014-Apr-22 21:31 205 15.6
2014-Apr-22 21:11 209 15.6
2014-Apr-22 21:01 209 15.6
2014-Apr-22 20:41 209 16.1
2014-Apr-22 20:11 209 16.1
2014-Apr-22 20:01 209 16.1
2014-Apr-22 19:41 209 16.7
2014-Apr-22 19:31 209 16.7
2014-Apr-22 19:11 209 16.7
2014-Apr-22 19:01 209 16.7
2014-Apr-22 18:41 209 16.7
2014-Apr-22 18:31 209 16.7
2014-Apr-22 18:11 209 16.7
2014-Apr-22 18:01 209 16.7
2014-Apr-22 17:41 209 16.7
2014-Apr-22 17:31 209 17.2
2014-Apr-22 17:11 209 17.2
2014-Apr-22 17:01 209 17.2
2014-Apr-22 16:41 209 0 gusting 6 17.2
2014-Apr-22 16:31 209 1 gusting 5 17.2
2014-Apr-22 16:11 208 3 gusting 6 17.8
2014-Apr-22 16:01 214 4 gusting 6 17.8
2014-Apr-22 15:41 211 5 gusting 8 18.3
2014-Apr-22 15:31 209 3 gusting 6 18.3
2014-Apr-22 15:11 249 4 gusting 4 18.9
2014-Apr-22 15:01 249 2 gusting 6 18.9
2014-Apr-22 14:41 224 5 gusting 6 19.4
2014-Apr-22 14:31 223 4 gusting 6 19.4
2014-Apr-22 14:11 249 5 gusting 8 20.0
2014-Apr-22 14:01 262 4 gusting 7 20.0
2014-Apr-22 13:41 229 2 gusting 5 20.6
2014-Apr-22 13:31 228 4 gusting 5 20.6
2014-Apr-22 13:11 232 4 gusting 5 20.6
2014-Apr-22 13:01 232 3 gusting 6 20.6
2014-Apr-22 12:41 218 3 gusting 6 20.6
2014-Apr-22 12:31 204 4 gusting 6 20.6
2014-Apr-22 12:11 219 5 gusting 6 20.0
2014-Apr-22 12:01 223 5 gusting 7 20.0
2014-Apr-22 11:41 225 4 gusting 7 20.6
2014-Apr-22 11:31 250 3 gusting 7 20.6
2014-Apr-22 11:11 244 5 gusting 7 21.1
2014-Apr-22 11:01 245 3 gusting 7 21.1
2014-Apr-22 10:41 215 4 gusting 6 21.1
2014-Apr-22 10:31 211 4 gusting 6 20.6
2014-Apr-22 10:11 218 4 gusting 6 20.6
2014-Apr-22 10:01 223 5 gusting 7 21.1
2014-Apr-22 09:41 233 1 gusting 4 21.1
2014-Apr-22 09:31 221 2 gusting 6 20.6
2014-Apr-22 09:11 253 2 gusting 6 18.9
2014-Apr-22 09:01 248 5 gusting 7 18.9
2014-Apr-22 08:41 224 2 gusting 6 18.9
2014-Apr-22 08:31 219 2 gusting 6 18.3
2014-Apr-22 08:11 212 3 gusting 6 17.8
2014-Apr-22 08:01 261 5 gusting 6 17.8
2014-Apr-22 07:41 207 2 gusting 6 17.2
2014-Apr-22 07:31 208 4 gusting 6 17.2
2014-Apr-22 07:11 211 3 gusting 6 16.7
2014-Apr-22 07:01 217 4 gusting 6 16.1
2014-Apr-22 06:41 223 15.6
2014-Apr-22 06:31 223 15.0
2014-Apr-22 06:11 223 14.4
2014-Apr-22 06:01 223 13.9
2014-Apr-22 05:41 223 13.3
2014-Apr-22 05:31 225 12.8
2014-Apr-22 05:11 225 12.2
2014-Apr-22 05:01 225 12.2
2014-Apr-22 04:41 225 11.7
2014-Apr-22 04:31 222 11.7
2014-Apr-22 04:11 222 11.1
2014-Apr-22 04:01 222 11.1
2014-Apr-22 03:41 222 11.1
2014-Apr-22 03:31 222 11.7
2014-Apr-22 03:11 222 11.7
2014-Apr-22 03:01 222 11.7
2014-Apr-22 02:41 222 11.7
2014-Apr-22 02:31 222 11.7
2014-Apr-22 02:11 222 12.2
2014-Apr-22 02:01 222 12.2
2014-Apr-22 01:41 222 12.2
2014-Apr-22 01:31 222 12.2
2014-Apr-22 01:11 222 12.8
2014-Apr-22 01:01 222 12.8
2014-Apr-22 00:41 222 12.8
2014-Apr-22 00:31 222 12.8
2014-Apr-22 00:11 222 13.3
2014-Apr-22 00:01 222 13.3
2014-Apr-21 23:41 222 13.9
2014-Apr-21 23:31 222 13.9
2014-Apr-21 23:11 222 13.9
2014-Apr-21 23:01 223 13.9
2014-Apr-21 22:41 222 14.4
2014-Apr-21 22:31 223 14.4
2014-Apr-21 22:11 223 14.4
2014-Apr-21 22:01 222 14.4
2014-Apr-21 21:41 222 14.4
2014-Apr-21 21:31 222 14.4
2014-Apr-21 21:11 222 15.0
2014-Apr-21 21:01 222 15.0
2014-Apr-21 20:41 222 15.0
2014-Apr-21 20:31 222 15.6
2014-Apr-21 20:11 222 15.6
2014-Apr-21 20:01 222 15.6
2014-Apr-21 19:41 222 16.1
2014-Apr-21 19:31 222 16.1
2014-Apr-21 19:11 222 16.1
2014-Apr-21 19:01 222 16.1
2014-Apr-21 18:41 222 16.1
2014-Apr-21 18:31 222 16.1
2014-Apr-21 18:11 222 16.1
2014-Apr-21 18:01 222 16.1
2014-Apr-21 17:41 222 16.1
2014-Apr-21 17:31 222 16.1
2014-Apr-21 17:11 229 5 gusting 7 16.1
2014-Apr-21 17:01 229 4 gusting 10 16.7
2014-Apr-21 16:41 215 5 gusting 7 17.2
2014-Apr-21 16:31 237 5 gusting 7 17.8
2014-Apr-21 16:11 279 3 gusting 6 18.3
2014-Apr-21 16:01 355 1 gusting 6 18.3
2014-Apr-21 15:41 345 4 gusting 6 18.3
2014-Apr-21 15:31 250 1 gusting 5 18.3
2014-Apr-21 15:11 245 17.8
2014-Apr-21 15:01 245 3 gusting 5 17.8
2014-Apr-21 14:41 244 1 gusting 7 18.3
2014-Apr-21 14:31 215 5 gusting 6 18.3
2014-Apr-21 14:11 216 5 gusting 6 18.3
2014-Apr-21 14:01 246 2 gusting 5 17.8
2014-Apr-21 13:41 248 17.2
2014-Apr-21 13:31 246 2 gusting 6 17.2
2014-Apr-21 13:11 245 0 gusting 5 16.7
2014-Apr-21 13:01 242 2 gusting 6 17.2
2014-Apr-21 12:41 260 16.7
2014-Apr-21 12:31 261 1 gusting 6 16.7
2014-Apr-21 12:11 257 16.7
2014-Apr-21 12:01 257 0 gusting 5 16.7